Flight Briefing for CPX667

Departure Arrival
Daytona Beach International Airport (KDAB)
Click to view FAA NOTAMS
Miami International Airport (KMIA)
Click to view FAA NOTAMS
Departure Time Arrival Time
N/A N/A
Aircraft Distance
SF340AF 207nm
Departure METAR Arrival METAR
KDAB 250153Z 00000KT 10SM CLR 23/21 A3012 RMK AO2 SLP199 T02280211 KMIA 250153Z 05009KT 10SM FEW040 26/18 A3008 RMK AO2 SLP186 T02610183
Suggested Route
MYRA V3 MLB V437 PHK V267 BRIKL


View recent IFR Routes data
Notes



Charts and Procedures

Charts for KDAB
No chart available
Charts for KMIA
No chart available

Windy.com Weather Map